TimeCDT,TemperatureF,Dew PointF,Humidity,Sea Level PressureIn,VisibilityMPH,Wind Direction,Wind SpeedMPH,Gust SpeedMPH,PrecipitationIn,Events,Conditions,WindDirDegrees,DateUTC
12:52 AM,62.1,59.0,90,30.10,5.0,Calm,Calm,-,N/A,,Clear,0,2013-08-19 05:52:00
1:52 AM,62.1,59.0,90,30.09,5.0,Calm,Calm,-,N/A,,Clear,0,2013-08-19 06:52:00
2:52 AM,60.1,57.0,90,30.07,5.0,Calm,Calm,-,N/A,,Clear,0,2013-08-19 07:52:00
3:52 AM,61.0,57.9,90,30.06,3.0,Calm,Calm,-,N/A,,Clear,0,2013-08-19 08:52:00
4:52 AM,59.0,57.9,96,30.06,2.5,East,3.5,-,N/A,,Clear,80,2013-08-19 09:52:00
5:11 AM,60.8,57.2,88,30.09,3.0,ENE,3.5,-,N/A,,Clear,70,2013-08-19 10:11:00
5:52 AM,59.0,55.9,90,30.07,4.0,East,3.5,-,N/A,,Clear,80,2013-08-19 10:52:00
6:52 AM,60.1,57.9,93,30.09,3.0,East,3.5,-,N/A,,Mostly Cloudy,90,2013-08-19 11:52:00
7:07 AM,62.6,59.0,88,30.11,2.5,East,3.5,-,N/A,,Overcast,100,2013-08-19 12:07:00
7:19 AM,62.6,60.8,94,30.11,3.0,ESE,3.5,-,N/A,,Mostly Cloudy,110,2013-08-19 12:19:00
7:34 AM,62.6,60.8,94,30.11,2.5,ESE,3.5,-,N/A,,Scattered Clouds,110,2013-08-19 12:34:00
7:52 AM,64.9,62.1,90,30.09,3.0,East,4.6,-,N/A,,Clear,90,2013-08-19 12:52:00
8:52 AM,69.1,64.0,84,30.10,6.0,ESE,3.5,-,N/A,,Haze,120,2013-08-19 13:52:00
9:52 AM,75.9,66.0,71,30.10,9.0,South,6.9,-,N/A,,Scattered Clouds,170,2013-08-19 14:52:00
10:52 AM,81.0,64.9,58,30.10,10.0,South,9.2,-,N/A,,Clear,180,2013-08-19 15:52:00
11:52 AM,82.0,64.0,54,30.09,10.0,SSE,12.7,-,N/A,,Clear,160,2013-08-19 16:52:00
12:52 PM,84.0,64.9,53,30.08,10.0,SSE,11.5,-,N/A,,Clear,160,2013-08-19 17:52:00
1:52 PM,86.0,64.0,48,30.06,10.0,South,9.2,18.4,N/A,,Clear,180,2013-08-19 18:52:00
2:52 PM,86.0,63.0,46,30.04,10.0,South,10.4,-,N/A,,Clear,170,2013-08-19 19:52:00
3:52 PM,87.1,64.9,48,30.02,10.0,SSW,9.2,-,N/A,,Clear,200,2013-08-19 20:52:00
4:52 PM,86.0,64.9,49,30.01,10.0,SSW,10.4,-,N/A,,Partly Cloudy,210,2013-08-19 21:52:00
5:52 PM,84.9,64.0,49,30.00,10.0,South,6.9,-,N/A,,Clear,170,2013-08-19 22:52:00
6:52 PM,82.9,64.9,54,29.99,10.0,South,6.9,-,N/A,,Clear,190,2013-08-19 23:52:00
7:52 PM,78.1,66.0,66,29.99,10.0,SSE,3.5,-,N/A,,Clear,150,2013-08-20 00:52:00
8:52 PM,73.0,66.9,81,29.99,10.0,SE,4.6,-,N/A,,Clear,130,2013-08-20 01:52:00
9:52 PM,71.1,66.0,84,30.01,9.0,SE,4.6,-,N/A,,Clear,130,2013-08-20 02:52:00
10:52 PM,70.0,64.9,84,30.01,8.0,SE,5.8,-,N/A,,Clear,130,2013-08-20 03:52:00
11:52 PM,70.0,64.9,84,30.01,8.0,SE,5.8,-,N/A,,Clear,130,2013-08-20 04:52:00